; 10.000.013,25 
01.01.2026 00:15;514
01.01.2026 00:30;485
01.01.2026 00:45;482
01.01.2026 01:00;450
01.01.2026 01:15;436
01.01.2026 01:30;421
01.01.2026 01:45;406
01.01.2026 02:00;391
01.01.2026 02:15;384
01.01.2026 02:30;382
01.01.2026 02:45;373
01.01.2026 03:00;367
01.01.2026 03:15;365
01.01.2026 03:30;360
01.01.2026 03:45;357
01.01.2026 04:00;355
01.01.2026 04:15;358
01.01.2026 04:30;358
01.01.2026 04:45;359
01.01.2026 05:00;363
01.01.2026 05:15;362
01.01.2026 05:30;364
01.01.2026 05:45;368
01.01.2026 06:00;371
01.01.2026 06:15;381
01.01.2026 06:30;383
01.01.2026 06:45;389
01.01.2026 07:00;395
01.01.2026 07:15;412
01.01.2026 07:30;421
01.01.2026 07:45;436
01.01.2026 08:00;458
01.01.2026 08:15;489
01.01.2026 08:30;509
01.01.2026 08:45;533
01.01.2026 09:00;557
01.01.2026 09:15;593
01.01.2026 09:30;629
01.01.2026 09:45;665
01.01.2026 10:00;689
01.01.2026 10:15;700
01.01.2026 10:30;735
01.01.2026 10:45;765
01.01.2026 11:00;794
01.01.2026 11:15;806
01.01.2026 11:30;827
01.01.2026 11:45;841
01.01.2026 12:00;861
01.01.2026 12:15;874
01.01.2026 12:30;903
01.01.2026 12:45;914
01.01.2026 13:00;898
01.01.2026 13:15;860
01.01.2026 13:30;854
01.01.2026 13:45;842
01.01.2026 14:00;836
01.01.2026 14:15;809
01.01.2026 14:30;796
01.01.2026 14:45;789
01.01.2026 15:00;789
01.01.2026 15:15;781
01.01.2026 15:30;778
01.01.2026 15:45;787
01.01.2026 16:00;776
01.01.2026 16:15;784
01.01.2026 16:30;817
01.01.2026 16:45;876
01.01.2026 17:00;949
01.01.2026 17:15;1019
01.01.2026 17:30;1086
01.01.2026 17:45;1138
01.01.2026 18:00;1186
01.01.2026 18:15;1183
01.01.2026 18:30;1191
01.01.2026 18:45;1180
01.01.2026 19:00;1162
01.01.2026 19:15;1153
01.01.2026 19:30;1124
01.01.2026 19:45;1088
01.01.2026 20:00;1065
01.01.2026 20:15;1067
01.01.2026 20:30;1010
01.01.2026 20:45;962
01.01.2026 21:00;918
01.01.2026 21:15;879
01.01.2026 21:30;848
01.01.2026 21:45;806
01.01.2026 22:00;790
01.01.2026 22:15;783
01.01.2026 22:30;775
01.01.2026 22:45;735
01.01.2026 23:00;695
01.01.2026 23:15;666
01.01.2026 23:30;628
01.01.2026 23:45;595
02.01.2026 00:00;566
02.01.2026 00:15;656
02.01.2026 00:30;630
02.01.2026 00:45;611
02.01.2026 01:00;580
02.01.2026 01:15;566
02.01.2026 01:30;543
02.01.2026 01:45;532
02.01.2026 02:00;520
02.01.2026 02:15;514
02.01.2026 02:30;501
02.01.2026 02:45;496
02.01.2026 03:00;514
02.01.2026 03:15;525
02.01.2026 03:30;529
02.01.2026 03:45;548
02.01.2026 04:00;555
02.01.2026 04:15;598
02.01.2026 04:30;633
02.01.2026 04:45;664
02.01.2026 05:00;666
02.01.2026 05:15;701
02.01.2026 05:30;744
02.01.2026 05:45;826
02.01.2026 06:00;917
02.01.2026 06:15;1032
02.01.2026 06:30;1181
02.01.2026 06:45;1314
02.01.2026 07:00;1451
02.01.2026 07:15;1595
02.01.2026 07:30;1735
02.01.2026 07:45;1820
02.01.2026 08:00;1847
02.01.2026 08:15;1984
02.01.2026 08:30;1954
02.01.2026 08:45;1993
02.01.2026 09:00;1962
02.01.2026 09:15;1924
02.01.2026 09:30;2007
02.01.2026 09:45;2052
02.01.2026 10:00;2067
02.01.2026 10:15;2052
02.01.2026 10:30;2053
02.01.2026 10:45;2040
02.01.2026 11:00;2089
02.01.2026 11:15;2050
02.01.2026 11:30;2123
02.01.2026 11:45;2136
02.01.2026 12:00;2099
02.01.2026 12:15;2069
02.01.2026 12:30;2093
02.01.2026 12:45;2078
02.01.2026 13:00;2027
02.01.2026 13:15;2018
02.01.2026 13:30;1988
02.01.2026 13:45;1960
02.01.2026 14:00;1943
02.01.2026 14:15;1913
02.01.2026 14:30;1867
02.01.2026 14:45;1835
02.01.2026 15:00;1837
02.01.2026 15:15;1770
02.01.2026 15:30;1730
02.01.2026 15:45;1720
02.01.2026 16:00;1708
02.01.2026 16:15;1716
02.01.2026 16:30;1763
02.01.2026 16:45;1807
02.01.2026 17:00;1857
02.01.2026 17:15;1939
02.01.2026 17:30;1926
02.01.2026 17:45;1914
02.01.2026 18:00;1921
02.01.2026 18:15;1906
02.01.2026 18:30;1884
02.01.2026 18:45;1834
02.01.2026 19:00;1818
02.01.2026 19:15;1771
02.01.2026 19:30;1711
02.01.2026 19:45;1638
02.01.2026 20:00;1589
02.01.2026 20:15;1561
02.01.2026 20:30;1451
02.01.2026 20:45;1348
02.01.2026 21:00;1271
02.01.2026 21:15;1218
02.01.2026 21:30;1216
02.01.2026 21:45;1171
02.01.2026 22:00;1116
02.01.2026 22:15;1091
02.01.2026 22:30;1031
02.01.2026 22:45;954
02.01.2026 23:00;898
02.01.2026 23:15;865
02.01.2026 23:30;811
02.01.2026 23:45;762
03.01.2026 00:00;732
03.01.2026 00:15;700
03.01.2026 00:30;653
03.01.2026 00:45;620
03.01.2026 01:00;597
03.01.2026 01:15;579
03.01.2026 01:30;556
03.01.2026 01:45;543
03.01.2026 02:00;525
03.01.2026 02:15;505
03.01.2026 02:30;486
03.01.2026 02:45;481
03.01.2026 03:00;475
03.01.2026 03:15;474
03.01.2026 03:30;471
03.01.2026 03:45;464
03.01.2026 04:00;469
03.01.2026 04:15;466
03.01.2026 04:30;467
03.01.2026 04:45;462
03.01.2026 05:00;471
03.01.2026 05:15;487
03.01.2026 05:30;493
03.01.2026 05:45;501
03.01.2026 06:00;513
03.01.2026 06:15;539
03.01.2026 06:30;568
03.01.2026 06:45;597
03.01.2026 07:00;622
03.01.2026 07:15;668
03.01.2026 07:30;694
03.01.2026 07:45;733
03.01.2026 08:00;792
03.01.2026 08:15;837
03.01.2026 08:30;845
03.01.2026 08:45;883
03.01.2026 09:00;919
03.01.2026 09:15;967
03.01.2026 09:30;1000
03.01.2026 09:45;1040
03.01.2026 10:00;1082
03.01.2026 10:15;1116
03.01.2026 10:30;1127
03.01.2026 10:45;1126
03.01.2026 11:00;1122
03.01.2026 11:15;1159
03.01.2026 11:30;1177
03.01.2026 11:45;1186
03.01.2026 12:00;1181
03.01.2026 12:15;1185
03.01.2026 12:30;1171
03.01.2026 12:45;1159
03.01.2026 13:00;1153
03.01.2026 13:15;1128
03.01.2026 13:30;1116
03.01.2026 13:45;1101
03.01.2026 14:00;1096
03.01.2026 14:15;1076
03.01.2026 14:30;1053
03.01.2026 14:45;1059
03.01.2026 15:00;1070
03.01.2026 15:15;1056
03.01.2026 15:30;1064
03.01.2026 15:45;1062
03.01.2026 16:00;1060
03.01.2026 16:15;1054
03.01.2026 16:30;1037
03.01.2026 16:45;1055
03.01.2026 17:00;1098
03.01.2026 17:15;1171
03.01.2026 17:30;1283
03.01.2026 17:45;1330
03.01.2026 18:00;1359
03.01.2026 18:15;1384
03.01.2026 18:30;1377
03.01.2026 18:45;1351
03.01.2026 19:00;1337
03.01.2026 19:15;1309
03.01.2026 19:30;1272
03.01.2026 19:45;1226
03.01.2026 20:00;1193
03.01.2026 20:15;1148
03.01.2026 20:30;1066
03.01.2026 20:45;1001
03.01.2026 21:00;952
03.01.2026 21:15;913
03.01.2026 21:30;871
03.01.2026 21:45;829
03.01.2026 22:00;810
03.01.2026 22:15;806
03.01.2026 22:30;780
03.01.2026 22:45;750
03.01.2026 23:00;725
03.01.2026 23:15;688
03.01.2026 23:30;663
03.01.2026 23:45;689
04.01.2026 00:00;660
04.01.2026 00:15;638
04.01.2026 00:30;611
04.01.2026 00:45;582
04.01.2026 01:00;527
04.01.2026 01:15;521
04.01.2026 01:30;500
04.01.2026 01:45;477
04.01.2026 02:00;470
04.01.2026 02:15;462
04.01.2026 02:30;453
04.01.2026 02:45;450
04.01.2026 03:00;442
04.01.2026 03:15;438
04.01.2026 03:30;433
04.01.2026 03:45;427
04.01.2026 04:00;426
04.01.2026 04:15;452
04.01.2026 04:30;479
04.01.2026 04:45;474
04.01.2026 05:00;479
04.01.2026 05:15;484
04.01.2026 05:30;487
04.01.2026 05:45;489
04.01.2026 06:00;495
04.01.2026 06:15;500
04.01.2026 06:30;506
04.01.2026 06:45;512
04.01.2026 07:00;520
04.01.2026 07:15;540
04.01.2026 07:30;562
04.01.2026 07:45;582
04.01.2026 08:00;616
04.01.2026 08:15;640
04.01.2026 08:30;655
04.01.2026 08:45;682
04.01.2026 09:00;721
04.01.2026 09:15;754
04.01.2026 09:30;790
04.01.2026 09:45;832
04.01.2026 10:00;866
04.01.2026 10:15;903
04.01.2026 10:30;949
04.01.2026 10:45;997
04.01.2026 11:00;1002
04.01.2026 11:15;1025
04.01.2026 11:30;1058
04.01.2026 11:45;1083
04.01.2026 12:00;1107
04.01.2026 12:15;1112
04.01.2026 12:30;1108
04.01.2026 12:45;1093
04.01.2026 13:00;1076
04.01.2026 13:15;995
04.01.2026 13:30;966
04.01.2026 13:45;962
04.01.2026 14:00;947
04.01.2026 14:15;936
04.01.2026 14:30;930
04.01.2026 14:45;921
04.01.2026 15:00;926
04.01.2026 15:15;934
04.01.2026 15:30;912
04.01.2026 15:45;903
04.01.2026 16:00;946
04.01.2026 16:15;948
04.01.2026 16:30;975
04.01.2026 16:45;1003
04.01.2026 17:00;1059
04.01.2026 17:15;1117
04.01.2026 17:30;1165
04.01.2026 17:45;1229
04.01.2026 18:00;1283
04.01.2026 18:15;1307
04.01.2026 18:30;1292
04.01.2026 18:45;1288
04.01.2026 19:00;1277
04.01.2026 19:15;1256
04.01.2026 19:30;1244
04.01.2026 19:45;1211
04.01.2026 20:00;1171
04.01.2026 20:15;1136
04.01.2026 20:30;1093
04.01.2026 20:45;1025
04.01.2026 21:00;986
04.01.2026 21:15;952
04.01.2026 21:30;927
04.01.2026 21:45;896
04.01.2026 22:00;883
04.01.2026 22:15;876
04.01.2026 22:30;849
04.01.2026 22:45;819
04.01.2026 23:00;790
04.01.2026 23:15;751
04.01.2026 23:30;708
04.01.2026 23:45;670
05.01.2026 00:00;632
05.01.2026 00:15;541
05.01.2026 00:30;518
05.01.2026 00:45;494
05.01.2026 01:00;475
05.01.2026 01:15;479
05.01.2026 01:30;467
05.01.2026 01:45;466
05.01.2026 02:00;453
05.01.2026 02:15;456
05.01.2026 02:30;447
05.01.2026 02:45;444
05.01.2026 03:00;440
05.01.2026 03:15;446
05.01.2026 03:30;451
05.01.2026 03:45;457
05.01.2026 04:00;457
05.01.2026 04:15;455
05.01.2026 04:30;470
05.01.2026 04:45;501
05.01.2026 05:00;530
05.01.2026 05:15;578
05.01.2026 05:30;615
05.01.2026 05:45;683
05.01.2026 06:00;771
05.01.2026 06:15;893
05.01.2026 06:30;1067
05.01.2026 06:45;1195
05.01.2026 07:00;1347
05.01.2026 07:15;1469
05.01.2026 07:30;1582
05.01.2026 07:45;1683
05.01.2026 08:00;1803
05.01.2026 08:15;1920
05.01.2026 08:30;1964
05.01.2026 08:45;2002
05.01.2026 09:00;1993
05.01.2026 09:15;1992
05.01.2026 09:30;2058
05.01.2026 09:45;2051
05.01.2026 10:00;2094
05.01.2026 10:15;2110
05.01.2026 10:30;2110
05.01.2026 10:45;2112
05.01.2026 11:00;2096
05.01.2026 11:15;2091
05.01.2026 11:30;2142
05.01.2026 11:45;2123
05.01.2026 12:00;2123
05.01.2026 12:15;2117
05.01.2026 12:30;2134
05.01.2026 12:45;2174
05.01.2026 13:00;2172
05.01.2026 13:15;2168
05.01.2026 13:30;2193
05.01.2026 13:45;2123
05.01.2026 14:00;2079
05.01.2026 14:15;2081
05.01.2026 14:30;2029
05.01.2026 14:45;2063
05.01.2026 15:00;2055
05.01.2026 15:15;2034
05.01.2026 15:30;2008
05.01.2026 15:45;1981
05.01.2026 16:00;1969
05.01.2026 16:15;1930
05.01.2026 16:30;1925
05.01.2026 16:45;1953
05.01.2026 17:00;2023
05.01.2026 17:15;2098
05.01.2026 17:30;2149
05.01.2026 17:45;2153
05.01.2026 18:00;2148
05.01.2026 18:15;2171
05.01.2026 18:30;2183
05.01.2026 18:45;2168
05.01.2026 19:00;2120
05.01.2026 19:15;2088
05.01.2026 19:30;2038
05.01.2026 19:45;1971
05.01.2026 20:00;1926
05.01.2026 20:15;1845
05.01.2026 20:30;1715
05.01.2026 20:45;1596
05.01.2026 21:00;1530
05.01.2026 21:15;1474
05.01.2026 21:30;1381
05.01.2026 21:45;1281
05.01.2026 22:00;1180
05.01.2026 22:15;1146
05.01.2026 22:30;1068
05.01.2026 22:45;970
05.01.2026 23:00;914
05.01.2026 23:15;850
05.01.2026 23:30;786
05.01.2026 23:45;753
06.01.2026 00:00;723
06.01.2026 00:15;693
06.01.2026 00:30;663
06.01.2026 00:45;596
06.01.2026 01:00;568
06.01.2026 01:15;547
06.01.2026 01:30;537
06.01.2026 01:45;533
06.01.2026 02:00;532
06.01.2026 02:15;522
06.01.2026 02:30;517
06.01.2026 02:45;522
06.01.2026 03:00;521
06.01.2026 03:15;518
06.01.2026 03:30;509
06.01.2026 03:45;519
06.01.2026 04:00;522
06.01.2026 04:15;528
06.01.2026 04:30;541
06.01.2026 04:45;562
06.01.2026 05:00;582
06.01.2026 05:15;634
06.01.2026 05:30;694
06.01.2026 05:45;756
06.01.2026 06:00;835
06.01.2026 06:15;958
06.01.2026 06:30;1115
06.01.2026 06:45;1263
06.01.2026 07:00;1414
06.01.2026 07:15;1535
06.01.2026 07:30;1648
06.01.2026 07:45;1727
06.01.2026 08:00;1818
06.01.2026 08:15;1882
06.01.2026 08:30;1896
06.01.2026 08:45;1913
06.01.2026 09:00;1935
06.01.2026 09:15;1909
06.01.2026 09:30;1925
06.01.2026 09:45;2013
06.01.2026 10:00;2002
06.01.2026 10:15;1989
06.01.2026 10:30;2016
06.01.2026 10:45;2120
06.01.2026 11:00;2105
06.01.2026 11:15;2114
06.01.2026 11:30;2146
06.01.2026 11:45;2159
06.01.2026 12:00;2151
06.01.2026 12:15;2108
06.01.2026 12:30;2107
06.01.2026 12:45;2090
06.01.2026 13:00;2086
06.01.2026 13:15;2102
06.01.2026 13:30;2088
06.01.2026 13:45;2094
06.01.2026 14:00;2034
06.01.2026 14:15;1997
06.01.2026 14:30;2018
06.01.2026 14:45;2000
06.01.2026 15:00;2001
06.01.2026 15:15;2009
06.01.2026 15:30;1906
06.01.2026 15:45;1883
06.01.2026 16:00;1866
06.01.2026 16:15;1862
06.01.2026 16:30;1850
06.01.2026 16:45;1879
06.01.2026 17:00;1984
06.01.2026 17:15;2095
06.01.2026 17:30;2148
06.01.2026 17:45;2151
06.01.2026 18:00;2173
06.01.2026 18:15;2195
06.01.2026 18:30;2164
06.01.2026 18:45;2130
06.01.2026 19:00;2094
06.01.2026 19:15;2096
06.01.2026 19:30;2041
06.01.2026 19:45;1969
06.01.2026 20:00;1930
06.01.2026 20:15;1888
06.01.2026 20:30;1717
06.01.2026 20:45;1611
06.01.2026 21:00;1566
06.01.2026 21:15;1510
06.01.2026 21:30;1404
06.01.2026 21:45;1307
06.01.2026 22:00;1212
06.01.2026 22:15;1156
06.01.2026 22:30;1088
06.01.2026 22:45;991
06.01.2026 23:00;937
06.01.2026 23:15;875
06.01.2026 23:30;818
06.01.2026 23:45;764
07.01.2026 00:00;728
07.01.2026 00:15;694
07.01.2026 00:30;652
07.01.2026 00:45;636
07.01.2026 01:00;605
07.01.2026 01:15;573
07.01.2026 01:30;552
07.01.2026 01:45;544
07.01.2026 02:00;538
07.01.2026 02:15;523
07.01.2026 02:30;516
07.01.2026 02:45;523
07.01.2026 03:00;519
07.01.2026 03:15;528
07.01.2026 03:30;533
07.01.2026 03:45;538
07.01.2026 04:00;543
07.01.2026 04:15;548
07.01.2026 04:30;548
07.01.2026 04:45;565
07.01.2026 05:00;598
07.01.2026 05:15;642
07.01.2026 05:30;679
07.01.2026 05:45;734
07.01.2026 06:00;820
07.01.2026 06:15;950
07.01.2026 06:30;1124
07.01.2026 06:45;1283
07.01.2026 07:00;1422
07.01.2026 07:15;1561
07.01.2026 07:30;1664
07.01.2026 07:45;1755
07.01.2026 08:00;1852
07.01.2026 08:15;1930
07.01.2026 08:30;2001
07.01.2026 08:45;2026
07.01.2026 09:00;2017
07.01.2026 09:15;1964
07.01.2026 09:30;1969
07.01.2026 09:45;1974
07.01.2026 10:00;2028
07.01.2026 10:15;2057
07.01.2026 10:30;2072
07.01.2026 10:45;2060
07.01.2026 11:00;2116
07.01.2026 11:15;2154
07.01.2026 11:30;2227
07.01.2026 11:45;2181
07.01.2026 12:00;2151
07.01.2026 12:15;2142
07.01.2026 12:30;2164
07.01.2026 12:45;2198
07.01.2026 13:00;2216
07.01.2026 13:15;2213
07.01.2026 13:30;2212
07.01.2026 13:45;2200
07.01.2026 14:00;2135
07.01.2026 14:15;2120
07.01.2026 14:30;2126
07.01.2026 14:45;2152
07.01.2026 15:00;2144
07.01.2026 15:15;2047
07.01.2026 15:30;2038
07.01.2026 15:45;2035
07.01.2026 16:00;1993
07.01.2026 16:15;2002
07.01.2026 16:30;2008
07.01.2026 16:45;2069
07.01.2026 17:00;2106
07.01.2026 17:15;2142
07.01.2026 17:30;2186
07.01.2026 17:45;2184
07.01.2026 18:00;2191
07.01.2026 18:15;2169
07.01.2026 18:30;2148
07.01.2026 18:45;2098
07.01.2026 19:00;2096
07.01.2026 19:15;2039
07.01.2026 19:30;2003
07.01.2026 19:45;1932
07.01.2026 20:00;1927
07.01.2026 20:15;1870
07.01.2026 20:30;1692
07.01.2026 20:45;1581
07.01.2026 21:00;1507
07.01.2026 21:15;1440
07.01.2026 21:30;1361
07.01.2026 21:45;1272
07.01.2026 22:00;1191
07.01.2026 22:15;1111
07.01.2026 22:30;1046
07.01.2026 22:45;980
07.01.2026 23:00;918
07.01.2026 23:15;863
07.01.2026 23:30;784
07.01.2026 23:45;719
08.01.2026 00:00;674
08.01.2026 00:15;658
08.01.2026 00:30;632
08.01.2026 00:45;588
08.01.2026 01:00;553
08.01.2026 01:15;529
08.01.2026 01:30;528
08.01.2026 01:45;519
08.01.2026 02:00;514
08.01.2026 02:15;511
08.01.2026 02:30;491
08.01.2026 02:45;487
08.01.2026 03:00;493
08.01.2026 03:15;489
08.01.2026 03:30;497
08.01.2026 03:45;494
08.01.2026 04:00;498
08.01.2026 04:15;504
08.01.2026 04:30;520
08.01.2026 04:45;540
08.01.2026 05:00;563
08.01.2026 05:15;611
08.01.2026 05:30;652
08.01.2026 05:45;721
08.01.2026 06:00;816
08.01.2026 06:15;930
08.01.2026 06:30;1090
08.01.2026 06:45;1276
08.01.2026 07:00;1421
08.01.2026 07:15;1549
08.01.2026 07:30;1746
08.01.2026 07:45;1794
08.01.2026 08:00;1869
08.01.2026 08:15;1961
08.01.2026 08:30;2009
08.01.2026 08:45;2019
08.01.2026 09:00;2060
08.01.2026 09:15;1982
08.01.2026 09:30;1984
08.01.2026 09:45;2102
08.01.2026 10:00;2184
08.01.2026 10:15;2115
08.01.2026 10:30;2091
08.01.2026 10:45;2101
08.01.2026 11:00;2081
08.01.2026 11:15;2065
08.01.2026 11:30;2108
08.01.2026 11:45;2135
08.01.2026 12:00;2127
08.01.2026 12:15;2138
08.01.2026 12:30;2213
08.01.2026 12:45;2234
08.01.2026 13:00;2213
08.01.2026 13:15;2214
08.01.2026 13:30;2211
08.01.2026 13:45;2173
08.01.2026 14:00;2121
08.01.2026 14:15;2032
08.01.2026 14:30;1933
08.01.2026 14:45;1907
08.01.2026 15:00;1969
08.01.2026 15:15;1983
08.01.2026 15:30;1965
08.01.2026 15:45;1891
08.01.2026 16:00;1855
08.01.2026 16:15;1856
08.01.2026 16:30;1880
08.01.2026 16:45;1903
08.01.2026 17:00;1979
08.01.2026 17:15;2071
08.01.2026 17:30;2138
08.01.2026 17:45;2100
08.01.2026 18:00;2172
08.01.2026 18:15;2147
08.01.2026 18:30;2112
08.01.2026 18:45;2092
08.01.2026 19:00;2070
08.01.2026 19:15;2082
08.01.2026 19:30;2036
08.01.2026 19:45;1983
08.01.2026 20:00;1908
08.01.2026 20:15;1850
08.01.2026 20:30;1708
08.01.2026 20:45;1625
08.01.2026 21:00;1555
08.01.2026 21:15;1482
08.01.2026 21:30;1412
08.01.2026 21:45;1296
08.01.2026 22:00;1200
08.01.2026 22:15;1137
08.01.2026 22:30;1054
08.01.2026 22:45;983
08.01.2026 23:00;929
08.01.2026 23:15;861
08.01.2026 23:30;797
08.01.2026 23:45;739
09.01.2026 00:00;694
09.01.2026 00:15;656
09.01.2026 00:30;630
09.01.2026 00:45;611
09.01.2026 01:00;580
09.01.2026 01:15;566
09.01.2026 01:30;543
09.01.2026 01:45;532
09.01.2026 02:00;520
09.01.2026 02:15;514
09.01.2026 02:30;501
09.01.2026 02:45;496
09.01.2026 03:00;514
09.01.2026 03:15;525
09.01.2026 03:30;529
09.01.2026 03:45;548
09.01.2026 04:00;555
09.01.2026 04:15;598
09.01.2026 04:30;633
09.01.2026 04:45;664
09.01.2026 05:00;666
09.01.2026 05:15;701
09.01.2026 05:30;744
09.01.2026 05:45;826
09.01.2026 06:00;917
09.01.2026 06:15;1032
09.01.2026 06:30;1181
09.01.2026 06:45;1314
09.01.2026 07:00;1451
09.01.2026 07:15;1595
09.01.2026 07:30;1735
09.01.2026 07:45;1820
09.01.2026 08:00;1847
09.01.2026 08:15;1984
09.01.2026 08:30;1954
09.01.2026 08:45;1993
09.01.2026 09:00;1962
09.01.2026 09:15;1924
09.01.2026 09:30;2007
09.01.2026 09:45;2052
09.01.2026 10:00;2067
09.01.2026 10:15;2052
09.01.2026 10:30;2053
09.01.2026 10:45;2040
09.01.2026 11:00;2089
09.01.2026 11:15;2050
09.01.2026 11:30;2123
09.01.2026 11:45;2136
09.01.2026 12:00;2099
09.01.2026 12:15;2069
09.01.2026 12:30;2093
09.01.2026 12:45;2078
09.01.2026 13:00;2027
09.01.2026 13:15;2018
09.01.2026 13:30;1988
09.01.2026 13:45;1960
09.01.2026 14:00;1943
09.01.2026 14:15;1913
09.01.2026 14:30;1867
09.01.2026 14:45;1835
09.01.2026 15:00;1837
09.01.2026 15:15;1770
09.01.2026 15:30;1730
09.01.2026 15:45;1720
09.01.2026 16:00;1708
09.01.2026 16:15;1716
09.01.2026 16:30;1763
09.01.2026 16:45;1807
09.01.2026 17:00;1857
09.01.2026 17:15;1939
09.01.2026 17:30;1926
09.01.2026 17:45;1914
09.01.2026 18:00;1921
09.01.2026 18:15;1906
09.01.2026 18:30;1884
09.01.2026 18:45;1834
09.01.2026 19:00;1818
09.01.2026 19:15;1771
09.01.2026 19:30;1711
09.01.2026 19:45;1638
09.01.2026 20:00;1589
09.01.2026 20:15;1561
09.01.2026 20:30;1451
09.01.2026 20:45;1348
09.01.2026 21:00;1271
09.01.2026 21:15;1218
09.01.2026 21:30;1216
09.01.2026 21:45;1171
09.01.2026 22:00;1116
09.01.2026 22:15;1091
09.01.2026 22:30;1031
09.01.2026 22:45;954
09.01.2026 23:00;898
09.01.2026 23:15;865
09.01.2026 23:30;811
09.01.2026 23:45;762
10.01.2026 00:00;732
10.01.2026 00:15;700
10.01.2026 00:30;653
10.01.2026 00:45;620
10.01.2026 01:00;597
10.01.2026 01:15;579
10.01.2026 01:30;556
10.01.2026 01:45;543
10.01.2026 02:00;525
10.01.2026 02:15;505
10.01.2026 02:30;486
10.01.2026 02:45;481
10.01.2026 03:00;475
10.01.2026 03:15;474
10.01.2026 03:30;471
10.01.2026 03:45;464
10.01.2026 04:00;469
10.01.2026 04:15;466
10.01.2026 04:30;467
10.01.2026 04:45;462
10.01.2026 05:00;471
10.01.2026 05:15;487
10.01.2026 05:30;493
10.01.2026 05:45;501
10.01.2026 06:00;513
10.01.2026 06:15;539
10.01.2026 06:30;568
10.01.2026 06:45;597
10.01.2026 07:00;622
10.01.2026 07:15;668
10.01.2026 07:30;694
10.01.2026 07:45;733
10.01.2026 08:00;792
10.01.2026 08:15;837
10.01.2026 08:30;845
10.01.2026 08:45;883
10.01.2026 09:00;919
10.01.2026 09:15;967
10.01.2026 09:30;1000
10.01.2026 09:45;1040
10.01.2026 10:00;1082
10.01.2026 10:15;1116
10.01.2026 10:30;1127
10.01.2026 10:45;1126
10.01.2026 11:00;1122
10.01.2026 11:15;1159
10.01.2026 11:30;1177
10.01.2026 11:45;1186
10.01.2026 12:00;1181
10.01.2026 12:15;1185
10.01.2026 12:30;1171
10.01.2026 12:45;1159
10.01.2026 13:00;1153
10.01.2026 13:15;1128
10.01.2026 13:30;1116
10.01.2026 13:45;1101
10.01.2026 14:00;1096
10.01.2026 14:15;1076
10.01.2026 14:30;1053
10.01.2026 14:45;1059
10.01.2026 15:00;1070
10.01.2026 15:15;1056
10.01.2026 15:30;1064
10.01.2026 15:45;1062
10.01.2026 16:00;1060
10.01.2026 16:15;1054
10.01.2026 16:30;1037
10.01.2026 16:45;1055
10.01.2026 17:00;1098
10.01.2026 17:15;1171
10.01.2026 17:30;1283
10.01.2026 17:45;1330
10.01.2026 18:00;1359
10.01.2026 18:15;1384
10.01.2026 18:30;1377
10.01.2026 18:45;1351
10.01.2026 19:00;1337
10.01.2026 19:15;1309
10.01.2026 19:30;1272
10.01.2026 19:45;1226
10.01.2026 20:00;1193
10.01.2026 20:15;1148
10.01.2026 20:30;1066
10.01.2026 20:45;1001
10.01.2026 21:00;952
10.01.2026 21:15;913
10.01.2026 21:30;871
10.01.2026 21:45;829
10.01.2026 22:00;810
10.01.2026 22:15;806
10.01.2026 22:30;780
10.01.2026 22:45;750
10.01.2026 23:00;725
10.01.2026 23:15;688
10.01.2026 23:30;663
10.01.2026 23:45;689
11.01.2026 00:00;660
11.01.2026 00:15;638
11.01.2026 00:30;611
11.01.2026 00:45;582
11.01.2026 01:00;527
11.01.2026 01:15;521
11.01.2026 01:30;500
11.01.2026 01:45;477
11.01.2026 02:00;470
11.01.2026 02:15;462
11.01.2026 02:30;453
11.01.2026 02:45;450
11.01.2026 03:00;442
11.01.2026 03:15;438
11.01.2026 03:30;433
11.01.2026 03:45;427
11.01.2026 04:00;426
11.01.2026 04:15;452
11.01.2026 04:30;479
11.01.2026 04:45;474
11.01.2026 05:00;479
11.01.2026 05:15;484
11.01.2026 05:30;487
11.01.2026 05:45;489
11.01.2026 06:00;495
11.01.2026 06:15;500
11.01.2026 06:30;506
11.01.2026 06:45;512
11.01.2026 07:00;520
11.01.2026 07:15;540
11.01.2026 07:30;562
11.01.2026 07:45;582
11.01.2026 08:00;616
11.01.2026 08:15;640
11.01.2026 08:30;655
11.01.2026 08:45;682
11.01.2026 09:00;721
11.01.2026 09:15;754
11.01.2026 09:30;790
11.01.2026 09:45;832
11.01.2026 10:00;866
11.01.2026 10:15;903
11.01.2026 10:30;949
11.01.2026 10:45;997
11.01.2026 11:00;1002
11.01.2026 11:15;1025
11.01.2026 11:30;1058
11.01.2026 11:45;1083
11.01.2026 12:00;1107
11.01.2026 12:15;1112
11.01.2026 12:30;1108
11.01.2026 12:45;1093
11.01.2026 13:00;1076
11.01.2026 13:15;995
11.01.2026 13:30;966
11.01.2026 13:45;962
11.01.2026 14:00;947
11.01.2026 14:15;936
11.01.2026 14:30;930
11.01.2026 14:45;921
11.01.2026 15:00;926
11.01.2026 15:15;934
11.01.2026 15:30;912
11.01.2026 15:45;903
11.01.2026 16:00;946
11.01.2026 16:15;948
11.01.2026 16:30;975
11.01.2026 16:45;1003
11.01.2026 17:00;1059
11.01.2026 17:15;1117
11.01.2026 17:30;1165
11.01.2026 17:45;1229
11.01.2026 18:00;1283
11.01.2026 18:15;1307
11.01.2026 18:30;1292
11.01.2026 18:45;1288
11.01.2026 19:00;1277
11.01.2026 19:15;1256
11.01.2026 19:30;1244
11.01.2026 19:45;1211
11.01.2026 20:00;1171
11.01.2026 20:15;1136
11.01.2026 20:30;1093
11.01.2026 20:45;1025
11.01.2026 21:00;986
11.01.2026 21:15;952
11.01.2026 21:30;927
11.01.2026 21:45;896
11.01.2026 22:00;883
11.01.2026 22:15;876
11.01.2026 22:30;849
11.01.2026 22:45;819
11.01.2026 23:00;790
11.01.2026 23:15;751
11.01.2026 23:30;708
11.01.2026 23:45;670
12.01.2026 00:00;632
12.01.2026 00:15;598
12.01.2026 00:30;576
12.01.2026 00:45;557
12.01.2026 01:00;538
12.01.2026 01:15;523
12.01.2026 01:30;513
12.01.2026 01:45;509
12.01.2026 02:00;507
12.01.2026 02:15;501